Regional Weather Roundup
Issued by NWS

Home | Current Version | Previous Version | Text Only | Print | Product List | Glossary On
Versions: 1 2 3 4 5 6 7 8 9 10 11 12 13 14 15 16 17 18 19 20 21 22 23 24 25 26 27 28 29 30 31 32 33 34 35 36 37 38 39 40 41 42 43 44 45 46 47 48 49 50
000
ASUS43 KLSX 051007
RWRMO

WEATHER SUMMARY FOR MISSOURI
NATIONAL WEATHER SERVICE SPRINGFIELD MO
400 AM CST THU MAR 05 2015

NOTE: "FAIR" INDICATES FEW OR NO CLOUDS BELOW 12,000 FEET WITH NO
       SIGNIFICANT WEATHER AND/OR OBSTRUCTIONS TO VISIBILITY.
       CURRENT SKY AND/OR WEATHER CONDITIONS ARE NOT AVAILABLE FOR
       CHILLICOTHE AND FARMINGTON.

MOZ001>031-035>038-043-044-053-054-051100-
...NORTHERN AND WESTERN MISSOURI...

CITY           SKY/WX    TMP DP  RH WIND       PRES   REMARKS
KANSAS CTY INT FAIR       9   0  67 N6        30.48R WCI  -1
KANSAS C DTWN  CLEAR     15  -1  49 N7        30.50R WCI   5
LEE`S SUMMIT   CLEAR     14   2  58 N9        30.47R WCI   2
ST JOSEPH      CLEAR      7  -1  70 N8        30.52R WCI  -6
CHILLICOTHE      N/A     13   2  61 NW6       30.49R WCI   4

$$
MOZ066>068-077>081-088>096-101>105-051100-
...SOUTHWEST MISSOURI...

CITY           SKY/WX    TMP DP  RH WIND       PRES   REMARKS
SPRINGFIELD    CLOUDY    20  10  65 NW7       30.39R WCI  11
JOPLIN         PTCLDY    19  10  68 NW3       30.44R

$$
MOZ032>034-039>042-045>050-055>058-069>072-051100-
...CENTRAL MISSOURI...

CITY           SKY/WX    TMP DP  RH WIND       PRES   REMARKS
COLUMBIA       MOCLDY    19   7  59 N12       30.42R WCI   7
JEFFERSON CITY FAIR      21   7  54 NW7       30.45R WCI  12
ROLLA          CLOUDY    19   6  57 NW7       30.36R WCI  10
SEDALIA        CLEAR     18   6  59 N10       30.45R WCI   6
WHITEMAN AFB   CLEAR     16   4  60 N10       30.46R WCI   3
WARRENSBURG    CLEAR     18   5  57 NW6       30.48R WCI   9
OSAGE BEACH    CLOUDY    21   7  53 NW5       30.41S WCI  15

$$
MOZ051-052-059>065-051100-
...EAST CENTRAL MISSOURI...

CITY           SKY/WX    TMP DP  RH WIND       PRES   REMARKS
ST LOUIS INTL  CLOUDY    21   4  47 N6        30.43R WCI  13
SPIRIT OF STL  MOCLDY    20   5  52 CALM      30.42R
ST CHARLES     MOCLDY    18   5  57 NE10      30.44R WCI   6

$$
MOZ072>076-082>087-097>100-106>115-051100-
...SOUTH CENTRAL AND SOUTHEAST MISSOURI...

CITY           SKY/WX    TMP DP  RH WIND       PRES   REMARKS
CAPE GIRARDEAU MIX PCPN  21  10  62 N16       30.36R WCI   7
FARMINGTON     MOCLDY    19   5  53 N6        30.38R WCI  11
POPLAR BLUFF   CLOUDY    22   8  55 N10       30.38R WCI  11
WEST PLAINS    CLOUDY    20   6  55 N6        30.37R WCI  12

$$



USA.gov is the U.S. government's official web portal to all federal, state and local government web resources and services.